• In Deutschland
  • Länderverzeichnis
  • Für 7 Tage
  • Wassertemperatur
  • Satellitenkarten
  • Wetterkarte
  • Widgets
  • user-avatar
    Anmelden

    Stündliche Wetter Ust-Barguzin

    Heute, 23 April, Montag

    Zeit Temperatur Niederschläge Wind Luftdruck Luftfeuchtigkeit
    00:00 +6°C° 0 mm 2 m/S 723 mmHg 68%
    01:00 +6°C° 0 mm 2 m/S 722 mmHg 63%
    02:00 +5°C° 0 mm 2 m/S 722 mmHg 64%
    03:00 +5°C° 0 mm 2 m/S 722 mmHg 64%
    04:00 +5°C° 0 mm 2 m/S 722 mmHg 64%
    05:00 +6°C° 0 mm 2 m/S 722 mmHg 61%
    06:00 +8°C° 0 mm 2 m/S 722 mmHg 58%
    07:00 +10°C° 0 mm 2 m/S 722 mmHg 55%
    08:00 +12°C° 0 mm 3 m/S 722 mmHg 50%
    09:00 +14°C° 0 mm 3 m/S 722 mmHg 44%
    10:00 +16°C° 0 mm 3 m/S 722 mmHg 39%
    11:00 +17°C° 0 mm 4 m/S 722 mmHg 37%
    12:00 +18°C° 0 mm 4 m/S 722 mmHg 35%
    13:00 +18°C° 0 mm 4 m/S 721 mmHg 33%
    14:00 +18°C° 0 mm 3 m/S 721 mmHg 33%
    15:00 +18°C° 0 mm 3 m/S 721 mmHg 33%
    16:00 +18°C° 0 mm 3 m/S 721 mmHg 34%
    17:00 +16°C° 0 mm 3 m/S 721 mmHg 40%
    18:00 +13°C° 0 mm 2 m/S 721 mmHg 46%
    19:00 +10°C° 0 mm 2 m/S 721 mmHg 52%
    20:00 +9°C° 0 mm 2 m/S 721 mmHg 52%
    21:00 +9°C° 0 mm 2 m/S 721 mmHg 52%
    22:00 +9°C° 0 mm 1 m/S 721 mmHg 52%
    23:00 +9°C° 0 mm 1 m/S 721 mmHg 52%

    Morgen, 24 April, Dienstag

    Zeit Temperatur Niederschläge Wind Luftdruck Luftfeuchtigkeit
    00:00 +9°C° 0 mm 1 m/S 721 mmHg 52%
    01:00 +9°C° 0 mm 1 m/S 721 mmHg 51%
    02:00 +8°C° 0 mm 1 m/S 720 mmHg 52%
    03:00 +8°C° 0 mm 1 m/S 720 mmHg 53%
    04:00 +8°C° 0 mm 1 m/S 720 mmHg 54%
    05:00 +10°C° 0 mm 1 m/S 720 mmHg 50%
    06:00 +12°C° 0 mm 1 m/S 719 mmHg 47%
    07:00 +14°C° 0 mm 1 m/S 719 mmHg 43%
    08:00 +16°C° 0 mm 1 m/S 718 mmHg 38%
    09:00 +18°C° 0 mm 2 m/S 718 mmHg 32%
    10:00 +20°C° 0 mm 2 m/S 717 mmHg 27%
    11:00 +21°C° 0 mm 2 m/S 716 mmHg 26%
    12:00 +23°C° 0 mm 2 m/S 716 mmHg 26%
    13:00 +24°C° 0 mm 3 m/S 715 mmHg 26%
    14:00 +24°C° 0 mm 3 m/S 714 mmHg 26%
    15:00 +22°C° 0 mm 3 m/S 714 mmHg 27%
    16:00 +22°C° 0 mm 3 m/S 713 mmHg 28%
    17:00 +20°C° 0 mm 2 m/S 713 mmHg 34%
    18:00 +17°C° 0 mm 2 m/S 713 mmHg 40%
    19:00 +15°C° 0 mm 2 m/S 713 mmHg 46%
    20:00 +13°C° 0 mm 2 m/S 713 mmHg 48%
    21:00 +12°C° 0 mm 2 m/S 713 mmHg 49%
    22:00 +10°C° 0 mm 2 m/S 714 mmHg 51%
    23:00 +9°C° 0 mm 2 m/S 714 mmHg 60%

    übermorgen, 25 April, Mittwoch

    Zeit Temperatur Niederschläge Wind Luftdruck Luftfeuchtigkeit
    00:00 +9°C° 0 mm 2 m/S 714 mmHg 70%
    01:00 +8°C° 0 mm 2 m/S 715 mmHg 79%
    02:00 +8°C° 0 mm 2 m/S 715 mmHg 83%
    03:00 +8°C° 0 mm 2 m/S 716 mmHg 87%
    04:00 +8°C° 0 mm 2 m/S 716 mmHg 92%
    05:00 +8°C° 0 mm 3 m/S 717 mmHg 88%
    06:00 +8°C° 0 mm 3 m/S 717 mmHg 84%
    07:00 +9°C° 0 mm 3 m/S 718 mmHg 80%
    08:00 +9°C° 0 mm 3 m/S 718 mmHg 75%
    09:00 +10°C° 0 mm 3 m/S 719 mmHg 70%
    10:00 +10°C° 0 mm 3 m/S 719 mmHg 65%
    11:00 +11°C° 0 mm 3 m/S 719 mmHg 60%
    12:00 +12°C° 0 mm 3 m/S 719 mmHg 56%
    13:00 +12°C° 0 mm 3 m/S 719 mmHg 52%
    14:00 +12°C° 0 mm 3 m/S 719 mmHg 50%
    15:00 +12°C° 0 mm 3 m/S 719 mmHg 48%
    16:00 +13°C° 0 mm 2 m/S 719 mmHg 47%
    17:00 +10°C° 0 mm 2 m/S 719 mmHg 52%
    18:00 +8°C° 0 mm 2 m/S 719 mmHg 58%
    19:00 +7°C° 0 mm 1 m/S 719 mmHg 63%
    20:00 +7°C° 0 mm 1 m/S 719 mmHg 65%
    21:00 +6°C° 0 mm 1 m/S 719 mmHg 67%
    22:00 +6°C° 0 mm 1 m/S 720 mmHg 69%
    23:00 +6°C° 0 mm 1 m/S 720 mmHg 66%

    26 April, Donnerstag

    Zeit Temperatur Niederschläge Wind Luftdruck Luftfeuchtigkeit
    00:00 +6°C° 0 mm 1 m/S 720 mmHg 64%
    01:00 +6°C° 0 mm 1 m/S 719 mmHg 61%
    02:00 +6°C° 0 mm 1 m/S 719 mmHg 59%
    03:00 +6°C° 0 mm 1 m/S 719 mmHg 56%
    04:00 +6°C° 0 mm 1 m/S 719 mmHg 54%
    05:00 +8°C° 0 mm 1 m/S 719 mmHg 48%
    06:00 +10°C° 0 mm 1 m/S 719 mmHg 43%
    07:00 +12°C° 0 mm 1 m/S 719 mmHg 37%
    08:00 +14°C° 0 mm 1 m/S 719 mmHg 35%
    09:00 +15°C° 0 mm 2 m/S 719 mmHg 32%
    10:00 +17°C° 0 mm 2 m/S 719 mmHg 30%
    11:00 +17°C° 0 mm 3 m/S 718 mmHg 33%
    12:00 +18°C° 0 mm 3 m/S 718 mmHg 36%
    13:00 +18°C° 0 mm 3 m/S 718 mmHg 39%
    14:00 +18°C° 0 mm 3 m/S 718 mmHg 42%
    15:00 +18°C° 0 mm 2 m/S 717 mmHg 45%
    16:00 +18°C° 0 mm 2 m/S 717 mmHg 48%
    17:00 +16°C° 0 mm 2 m/S 717 mmHg 55%
    18:00 +14°C° 0 mm 2 m/S 717 mmHg 61%
    19:00 +13°C° 0 mm 1 m/S 717 mmHg 68%
    20:00 +12°C° 0,1 mm 1 m/S 717 mmHg 71%
    21:00 +11°C° 0,1 mm 1 m/S 717 mmHg 73%
    22:00 +11°C° 0,1 mm 1 m/S 717 mmHg 76%
    23:00 +11°C° 0,5 mm 1 m/S 717 mmHg 79%

    27 April, Freitag

    Zeit Temperatur Niederschläge Wind Luftdruck Luftfeuchtigkeit
    00:00 +10°C° 0,5 mm 1 m/S 717 mmHg 82%
    01:00 +10°C° 0,5 mm 1 m/S 716 mmHg 84%
    02:00 +10°C° 0,6 mm 1 m/S 717 mmHg 87%
    03:00 +8°C° 0,6 mm 2 m/S 717 mmHg 89%
    04:00 +8°C° 0,6 mm 2 m/S 717 mmHg 92%
    05:00 +8°C° 0 mm 2 m/S 718 mmHg 90%
    06:00 +9°C° 0 mm 2 m/S 718 mmHg 88%
    07:00 +9°C° 0 mm 2 m/S 718 mmHg 86%
    08:00 +10°C° 0 mm 2 m/S 718 mmHg 81%
    09:00 +11°C° 0 mm 3 m/S 719 mmHg 76%
    10:00 +11°C° 0 mm 3 m/S 719 mmHg 71%
    11:00 +12°C° 0 mm 3 m/S 719 mmHg 60%
    12:00 +13°C° 0 mm 4 m/S 719 mmHg 49%
    13:00 +14°C° 0 mm 4 m/S 719 mmHg 39%
    14:00 +13°C° 0 mm 4 m/S 719 mmHg 37%
    15:00 +13°C° 0 mm 4 m/S 719 mmHg 35%
    16:00 +13°C° 0 mm 4 m/S 719 mmHg 33%
    17:00 +12°C° 0 mm 3 m/S 719 mmHg 38%
    18:00 +10°C° 0 mm 2 m/S 719 mmHg 44%
    19:00 +8°C° 0 mm 2 m/S 719 mmHg 49%
    20:00 +8°C° 0 mm 2 m/S 720 mmHg 52%
    21:00 +7°C° 0 mm 2 m/S 720 mmHg 55%
    22:00 +6°C° 0 mm 2 m/S 720 mmHg 58%
    23:00 +6°C° 0 mm 2 m/S 720 mmHg 59%

    28 April, Samstag

    Zeit Temperatur Niederschläge Wind Luftdruck Luftfeuchtigkeit
    00:00 +6°C° 0 mm 1 m/S 720 mmHg 60%
    01:00 +6°C° 0 mm 1 m/S 720 mmHg 60%
    02:00 +6°C° 0 mm 1 m/S 720 mmHg 61%
    03:00 +5°C° 0 mm 1 m/S 720 mmHg 61%
    04:00 +5°C° 0 mm 1 m/S 720 mmHg 61%
    05:00 +6°C° 0 mm 1 m/S 720 mmHg 56%
    06:00 +7°C° 0 mm 1 m/S 720 mmHg 52%
    07:00 +9°C° 0 mm 1 m/S 720 mmHg 47%
    08:00 +8°C° 0 mm 2 m/S 720 mmHg 44%
    09:00 +9°C° 0 mm 2 m/S 720 mmHg 41%
    10:00 +10°C° 0 mm 2 m/S 719 mmHg 38%
    11:00 +9°C° 0 mm 3 m/S 719 mmHg 39%
    12:00 +9°C° 0 mm 3 m/S 719 mmHg 40%
    13:00 +9°C° 0 mm 3 m/S 718 mmHg 41%
    14:00 +8°C° 0 mm 3 m/S 718 mmHg 43%
    15:00 +8°C° 0 mm 3 m/S 718 mmHg 45%
    16:00 +7°C° 0 mm 3 m/S 718 mmHg 46%
    17:00 +7°C° 0 mm 2 m/S 718 mmHg 49%
    18:00 +6°C° 0 mm 2 m/S 718 mmHg 51%
    19:00 +5°C° 0 mm 2 m/S 719 mmHg 54%
    20:00 +4°C° 0 mm 2 m/S 719 mmHg 58%
    21:00 +3°C° 0 mm 2 m/S 719 mmHg 62%
    22:00 +2°C° 0 mm 2 m/S 719 mmHg 66%
    23:00 +1°C° 0 mm 2 m/S 719 mmHg 69%
    Mehr zeigen